This demonstration page uses our WeatherBlox Daily Observations layout. Learn more.

Left ArrowRight Arrow

34.74481, -87.66753

Hourly Observations for October 16, 2019

Temp ( °F °C ) Dew Point ( °F °C ) Humidity (%) Winds ( mph kmh ) Pressure ( in mb ) Visibility ( mi km ) Precip ( " mm )
12:37 am 00:37 Cloudy with Mist and Fog 68 20 66 18.9 93 93 Calm 29.86 1011 5 8 0.00 0.00
12:46 am 00:46 Cloudy with Mist and Fog 68 20 66 18.9 93 93 Calm 29.85 1011 6 10 0.00 0.00
12:53 am 00:53 Cloudy with Mist and Fog 68 20 66 18.9 93 93 Calm 29.84 1011 6 10 0.00 0.00
1:14 am 01:14 Cloudy with Mist and Fog 68 20 66 18.9 93 93 WSW 3 6 29.85 1011 5 8 0.00 0.00
1:53 am 01:53 Cloudy with Mist and Fog 68 20 66 18.9 93 93 W 7 11 29.83 1010 6 10 0.00 0.00
2:35 am 02:35 Cloudy 68 20 66 18.9 93 93 W 8 13 29.84 1010 10 16 0.00 0.00
2:53 am 02:53 Cloudy 68 20 66 18.9 93 93 W 7 11 29.83 1010 10 16 0.00 0.00
3:34 am 03:34 Cloudy with Heavy Rain 66 18.9 63 17.2 90 90 NW 9 15 29.84 1010 3 4 0.07 1.78
3:41 am 03:41 Cloudy with Light Rain 66 18.9 63 17.2 90 90 WNW 7 11 29.83 1010 5 8 0.08 2.03
3:53 am 03:53 Cloudy with Light Rain 66 18.9 62 16.7 87 87 W 3 6 29.81 1010 10 16 0.08 2.03
4:53 am 04:53 Cloudy with Light Rain 66 18.9 63 17.2 90 90 WNW 10 17 29.83 1010 6 10 0.08 2.03
5:09 am 05:09 Cloudy 65 18.3 63 17.2 93 93 WNW 10 17 29.84 1011 10 16 0.00 0.00
5:11 am 05:11 Cloudy 65 18.3 63 17.2 93 93 WNW 8 13 29.84 1011 10 16 0.00 0.00
5:28 am 05:28 Cloudy 65 18.3 62 16.7 90 90 NW 12 19 29.85 1011 10 16 0.00 0.00
5:53 am 05:53 Cloudy 65 18.3 62 16.7 90 90 NW 9 15 29.85 1011 10 16 0.00 0.00
6:51 am 06:51 Cloudy 59 15 52 11 77 77 N 12 19 29.91 1013 10 16 0.01 0.25
6:52 am 06:52 Cloudy 59 15 52 11.1 78 78 N 10 17 29.90 1013 10 16 0.01 0.25
7:53 am 07:53 Cloudy 58 14.4 51 10.6 78 78 N 8 13 29.93 1014 10 16 0.00 0.00
8:53 am 08:53 Cloudy 59 15 51 10.6 75 75 NNE 5 7 29.96 1014 10 16 0.00 0.00
9:53 am 09:53 Mostly Cloudy 60 15.6 49 9.4 67 67 NNW 12 19 29.98 1015 10 16 0.00 0.00
10:05 am 10:05 Partly Cloudy 60 15.6 48 8.9 65 65 NW 12 19 30.00 1016 10 16 0.00 0.00
10:53 am 10:53 Sunny 61 16.1 46 7.8 58 58 NNW 12 19 30.00 1016 10 16 0.00 0.00
11:53 am 11:53 Sunny 63 17.2 45 7.2 52 52 NNW 9 15 30.00 1016 10 16 0.00 0.00
12:53 pm 12:53 Sunny 64 17.8 44 6.7 48 48 VRB 6 9 29.99 1016 10 16 0.00 0.00
1:53 pm 13:53 Sunny 66 18.9 42 5.6 42 42 NW 7 11 29.98 1015 10 16 0.00 0.00
2:53 pm 14:53 Sunny 68 20 40 4.4 36 36 WNW 9 15 29.98 1015 10 16 0.00 0.00
3:53 pm 15:53 Sunny 68 20 39 3.9 35 35 NW 13 20 29.98 1015 10 16 0.00 0.00
4:53 pm 16:53 Sunny 66 18.9 40 4.4 39 39 NW 12 19 29.99 1016 10 16 0.00 0.00
5:53 pm 17:53 Sunny 62 16.7 42 5.6 48 48 NW 7 11 30.01 1016 10 16 0.00 0.00
6:53 pm 18:53 Clear 58 14.4 42 5.6 56 56 NW 5 7 30.01 1016 10 16 0.00 0.00
7:53 pm 19:53 Clear 57 13.9 42 5.6 58 58 N 8 13 30.02 1017 10 16 0.00 0.00
8:53 pm 20:53 Clear 55 12.8 42 5.6 62 62 NNW 5 7 30.02 1017 10 16 0.00 0.00
9:53 pm 21:53 Clear 53 11.7 43 6.1 69 69 NNW 5 7 30.05 1018 10 16 0.00 0.00
10:53 pm 22:53 Clear 50 10 44 6.7 80 80 NW 5 7 30.07 1018 10 16 0.00 0.00
11:53 pm 23:53 Clear 51 10.6 43 6.1 74 74 NNW 3 6 30.06 1018 10 16 0.00 0.00

Powered by AerisWeather